Date,TemperatureHighF,TemperatureAvgF,TemperatureLowF,DewpointHighF,DewpointAvgF,DewpointLowF,HumidityHigh,HumidityAvg,HumidityLow,PressureMaxIn,PressureMinIn,WindSpeedMaxMPH,WindSpeedAvgMPH,GustSpeedMaxMPH,PrecipitationSumIn
2013-3-1,30.9,26.6,22.4,20.5,17.4,12.7,74,68,61,30.53,30.38,7,1,7,0.00
2013-3-2,28.0,23.2,20.1,17.7,14.3,11.8,75,69,63,30.52,30.45,7,0,7,0.00
2013-3-3,34.3,22.5,11.4,20.1,13.0,5.5,78,67,54,30.46,30.37,7,0,7,0.00
2013-3-4,37.2,23.6,10.5,20.8,12.8,4.3,77,64,47,30.52,30.45,3,0,3,0.00
2013-3-5,32.3,23.8,13.4,23.4,16.7,7.2,81,74,66,30.53,30.31,8,0,8,0.00
2013-3-6,41.5,33.8,28.5,31.2,26.5,23.4,81,75,64,30.59,30.34,7,0,7,0.00
2013-3-7,37.9,31.4,25.5,27.2,21.8,15.6,83,68,54,30.79,30.58,6,0,6,0.00
2013-3-8,46.2,30.5,17.9,28.8,19.8,11.6,78,65,49,30.88,30.77,5,0,5,0.00
2013-3-9,44.7,33.0,21.9,30.1,24.1,16.0,80,70,56,30.78,30.39,3,0,3,0.00
2013-3-10,44.4,38.3,32.3,40.0,33.6,27.9,89,83,79,30.39,30.16,3,0,3,0.00
2013-3-11,46.2,41.2,35.7,43.7,38.1,31.6,91,89,84,30.16,29.82,15,2,15,0.00
2013-3-12,35.7,32.4,28.5,31.9,26.8,23.0,86,80,71,30.25,29.97,13,5,13,0.00
2013-3-13,35.7,28.6,23.3,23.4,18.5,14.2,81,67,49,30.56,30.23,10,2,10,0.00
2013-3-14,41.0,30.5,19.4,24.7,18.5,12.5,76,62,48,30.62,30.40,10,2,10,0.00
2013-3-15,41.9,34.7,30.3,29.9,25.0,18.8,77,68,51,30.41,30.23,12,3,12,0.00
2013-3-16,32.9,27.6,22.6,23.2,20.4,16.1,80,74,64,30.43,30.21,6,0,6,0.00
2013-3-17,30.5,23.7,18.6,16.2,12.0,8.0,75,61,44,30.68,30.43,7,0,7,0.00
2013-3-18,31.6,26.3,18.6,27.9,19.6,10.1,86,76,67,30.60,29.92,6,0,6,0.00
2013-3-19,32.3,25.4,21.9,28.4,17.8,15.1,86,73,64,30.25,29.92,21,8,21,0.00
2013-3-20,30.7,23.0,17.4,17.4,13.1,9.6,72,66,56,30.30,30.23,15,5,15,0.00
2013-3-21,33.0,25.8,17.4,22.3,17.3,10.2,79,70,62,30.31,30.20,9,1,9,0.00
2013-3-22,39.2,30.3,24.4,25.8,20.4,15.9,72,67,58,30.41,30.30,10,2,10,0.00
2013-3-23,38.1,32.2,28.5,26.7,22.7,20.0,73,68,61,30.50,30.40,6,0,6,0.00
2013-3-24,37.0,30.8,25.3,26.0,22.4,18.9,80,71,61,30.45,30.13,8,0,8,0.00
2013-3-25,39.7,34.3,29.6,27.1,25.0,22.0,76,69,57,30.34,30.08,11,1,11,0.00
2013-3-26,42.9,36.2,31.4,31.5,26.7,23.5,78,69,59,30.50,30.34,8,0,8,0.00
2013-3-27,49.6,37.9,29.8,32.2,25.6,21.7,75,62,47,30.57,30.48,9,1,9,0.00
2013-3-28,55.2,40.1,28.9,32.9,25.4,20.6,73,57,39,30.64,30.56,7,0,7,0.00
2013-3-29,56.4,39.1,25.7,32.9,23.9,18.5,76,56,38,30.65,30.55,8,1,8,0.00
2013-3-30,56.4,38.8,25.7,32.2,23.9,18.0,76,57,34,30.59,30.23,10,1,10,0.00
2013-3-31,57.7,44.3,35.2,41.9,34.4,26.7,84,69,53,30.23,29.98,14,3,14,0.00